User: anonymous   Login
Location: Brno
(49.2000°N, 16.6330°E)
Time: 15:04:35
(UTC+01:00)
Language:

Iridium 2 - Orbit

View from above orbital plane
View from above orbital plane
View from above satellite
View from above satellite

Ground track
Ground track

The orbit data is extracted from the following two-line orbital elements,

1 25527U 98066A   16342.53568512  .00002133  00000-0  10909-3 0  9992
2 25527  85.5296 145.3324 0011615  77.5588 282.6950 15.15975570988837
Epoch (UTC): 07 December 2016 12:51:23
Eccentricity: 0.0011615
inclination: 85.5296°
perigee height: 510 km
apogee height: 526 km
right ascension of ascending node: 145.3324°
argument of perigee: 77.5588°
revolutions per day: 15.15975570
mean anomaly at epoch: 282.6950°
orbit number at epoch: 98883

The dashed part of the orbit path shows where the satellite is in the earth's shadow,  

DLR